sat.trackr.live / text

‹ back to catalog

STARLINK-6143

NORAD 57133 · 2023-090AJ

PAYLOAD ACTIVE UNKNOWN

§ Identity

Operator
Country
US
Launch date
2023-06-23
Launch site
AFETR
Launch vehicle
Mass (kg)
RCS (m²)

Purposes: comms

External: N2YO · Heavens-Above · Gunter

§ Orbital elements

Epoch: 2026-09-20T09:45:23.676192Z

Period
94.27 min
Inclination
43.0038°
Eccentricity
0.0001658
Mean motion
15.27577176 rev/d
Perigee alt
481.9 km
Apogee alt
484.2 km
Semi-major
6,861.2 km
B*
2.8455e-5
RAAN
243.6147°
Arg perigee
281.2974°
Mean anomaly
78.7691°
Rev number
18,013

§ Raw data

STARLINK-61431 57133U 23090AJ  26263.40652403  .00000521  00000+0  28455-4 0  99912 57133  43.0038 243.6147 0001658 281.2974  78.7691 15.27577176180138

JSON: /api/v1/satellites/57133 · /tle

For live sub-satellite position, see the globe view (requires WebGL).

§ Visibility from observer

Set your observer location to see the next 7 days of passes ≥ 10°. The values pass through the URL so the page stays shareable.

No JS? Fill the form by hand. The geolocation button needs JavaScript.